Time,TemperatureF,DewpointF,PressureIn,WindDirection,WindDirectionDegrees,WindSpeedMPH,WindSpeedGustMPH,Humidity,HourlyPrecipIn,Conditions,Clouds,dailyrainin,SoftwareType,DateUTC
2013-04-09 00:02:00,29.0,25.0,30.13,NNW,342,6.0,-999.0,84,-99.99,,,-99.99,,2013-04-09 05:02:00,
2013-04-09 00:12:00,28.0,24.0,30.13,NNW,337,7.0,-999.0,83,-99.99,,,-99.99,,2013-04-09 05:12:00,
2013-04-09 00:22:00,28.0,24.0,30.13,NNW,337,7.0,-999.0,83,-99.99,,,-99.99,,2013-04-09 05:22:00,
2013-04-09 00:32:00,28.0,24.0,30.13,NNW,334,6.0,-999.0,83,-99.99,,,-99.99,,2013-04-09 05:32:00,
2013-04-09 00:42:00,28.0,24.0,30.12,North,360,8.0,-999.0,83,-99.99,,,-99.99,,2013-04-09 05:42:00,
2013-04-09 00:52:00,28.0,24.0,30.12,North,360,8.0,-999.0,83,-99.99,,,-99.99,,2013-04-09 05:52:00,
2013-04-09 01:02:00,27.0,22.0,30.11,North,355,9.0,-999.0,81,-99.99,,,-99.99,,2013-04-09 06:02:00,
2013-04-09 01:12:00,27.0,22.0,30.11,North,355,9.0,-999.0,81,-99.99,,,-99.99,,2013-04-09 06:12:00,
2013-04-09 01:22:00,27.0,22.0,30.11,North,355,9.0,-999.0,81,-99.99,,,-99.99,,2013-04-09 06:22:00,
2013-04-09 01:32:00,26.0,21.0,30.09,North,360,8.0,-999.0,82,-99.99,,,-99.99,,2013-04-09 06:32:00,
2013-04-09 01:42:00,26.0,21.0,30.09,North,360,8.0,-999.0,82,-99.99,,,-99.99,,2013-04-09 06:42:00,
2013-04-09 01:52:00,26.0,21.0,30.11,NNW,345,8.0,-999.0,82,-99.99,,,-99.99,,2013-04-09 06:52:00,
2013-04-09 02:02:00,26.0,21.0,30.14,NNW,342,7.0,-999.0,81,-99.99,,,-99.99,,2013-04-09 07:02:00,
2013-04-09 02:13:00,26.0,21.0,30.14,NNW,342,7.0,-999.0,81,-99.99,,,-99.99,,2013-04-09 07:13:00,
2013-04-09 02:22:00,25.0,20.0,30.15,NNW,345,6.0,-999.0,81,-99.99,,,-99.99,,2013-04-09 07:22:00,
2013-04-09 02:32:00,25.0,20.0,30.14,North,360,7.0,-999.0,81,-99.99,,,-99.99,,2013-04-09 07:32:00,
2013-04-09 02:42:00,25.0,20.0,30.14,North,360,7.0,-999.0,81,-99.99,,,-99.99,,2013-04-09 07:42:00,
2013-04-09 02:52:00,25.0,20.0,30.15,NNW,348,8.0,-999.0,80,-99.99,,,-99.99,,2013-04-09 07:52:00,
2013-04-09 03:03:00,25.0,20.0,30.14,North,350,6.0,-999.0,80,-99.99,,,-99.99,,2013-04-09 08:03:00,
2013-04-09 03:12:00,25.0,20.0,30.14,North,350,6.0,-999.0,80,-99.99,,,-99.99,,2013-04-09 08:12:00,
2013-04-09 03:22:00,24.0,18.0,30.15,North,360,7.0,-999.0,79,-99.99,,,-99.99,,2013-04-09 08:22:00,
2013-04-09 03:32:00,24.0,18.0,30.15,NNW,338,8.0,-999.0,79,-99.99,,,-99.99,,2013-04-09 08:32:00,
2013-04-09 03:42:00,24.0,18.0,30.15,NNW,338,8.0,-999.0,79,-99.99,,,-99.99,,2013-04-09 08:42:00,
2013-04-09 03:52:00,24.0,19.0,30.12,North,355,8.0,-999.0,80,-99.99,,,-99.99,,2013-04-09 08:52:00,
2013-04-09 04:02:00,23.0,18.0,30.10,North,360,8.0,-999.0,81,-99.99,,,-99.99,,2013-04-09 09:02:00,
2013-04-09 04:12:00,23.0,18.0,30.11,NW,322,7.0,-999.0,81,-99.99,,,-99.99,,2013-04-09 09:12:00,
2013-04-09 04:22:00,23.0,18.0,30.11,NW,322,7.0,-999.0,81,-99.99,,,-99.99,,2013-04-09 09:22:00,
2013-04-09 04:33:00,23.0,18.0,30.12,NNW,337,6.0,-999.0,81,-99.99,,,-99.99,,2013-04-09 09:33:00,
2013-04-09 04:43:00,23.0,18.0,30.12,NNW,337,6.0,-999.0,81,-99.99,,,-99.99,,2013-04-09 09:43:00,
2013-04-09 04:52:00,22.0,17.0,30.14,NNW,333,6.0,-999.0,81,-99.99,,,-99.99,,2013-04-09 09:52:00,
2013-04-09 05:03:00,22.0,17.0,30.16,NNW,338,6.0,-999.0,81,-99.99,,,-99.99,,2013-04-09 10:03:00,
2013-04-09 05:13:00,22.0,17.0,30.16,NNW,338,6.0,-999.0,81,-99.99,,,-99.99,,2013-04-09 10:13:00,
2013-04-09 05:23:00,22.0,17.0,30.15,North,360,7.0,-999.0,80,-99.99,,,-99.99,,2013-04-09 10:23:00,
2013-04-09 05:33:00,22.0,17.0,30.16,NNW,336,7.0,-999.0,80,-99.99,,,-99.99,,2013-04-09 10:33:00,
2013-04-09 05:42:00,22.0,17.0,30.16,NNW,336,7.0,-999.0,80,-99.99,,,-99.99,,2013-04-09 10:42:00,
2013-04-09 05:52:00,22.0,17.0,30.16,North,351,7.0,-999.0,80,-99.99,,,-99.99,,2013-04-09 10:52:00,
2013-04-09 06:02:00,22.0,16.0,30.16,North,360,7.0,-999.0,79,-99.99,,,-99.99,,2013-04-09 11:02:00,
2013-04-09 06:12:00,22.0,16.0,30.16,North,360,7.0,-999.0,79,-99.99,,,-99.99,,2013-04-09 11:12:00,
2013-04-09 06:22:00,22.0,16.0,30.17,NNW,344,5.0,-999.0,79,-99.99,,,-99.99,,2013-04-09 11:22:00,
2013-04-09 06:32:00,22.0,16.0,30.18,North,355,3.0,-999.0,79,-99.99,,,-99.99,,2013-04-09 11:32:00,
2013-04-09 06:42:00,22.0,16.0,30.18,North,355,3.0,-999.0,79,-99.99,,,-99.99,,2013-04-09 11:42:00,
2013-04-09 06:52:00,22.0,16.0,30.17,North,350,3.0,-999.0,79,-99.99,,,-99.99,,2013-04-09 11:52:00,
2013-04-09 07:02:00,23.0,17.0,30.17,NNW,346,5.0,-999.0,77,-99.99,,,-99.99,,2013-04-09 12:02:00,
2013-04-09 07:12:00,23.0,17.0,30.17,NNW,346,5.0,-999.0,77,-99.99,,,-99.99,,2013-04-09 12:12:00,
2013-04-09 07:22:00,22.0,16.0,30.16,North,360,6.0,-999.0,77,-99.99,,,-99.99,,2013-04-09 12:22:00,
2013-04-09 07:32:00,22.0,16.0,30.17,North,350,5.0,-999.0,77,-99.99,,,-99.99,,2013-04-09 12:32:00,
2013-04-09 07:42:00,22.0,16.0,30.17,North,350,5.0,-999.0,77,-99.99,,,-99.99,,2013-04-09 12:42:00,
2013-04-09 07:52:00,22.0,16.0,30.17,NNW,337,6.0,-999.0,76,-99.99,,,-99.99,,2013-04-09 12:52:00,
2013-04-09 08:02:00,22.0,15.0,30.18,North,360,5.0,-999.0,75,-99.99,,,-99.99,,2013-04-09 13:02:00,
2013-04-09 08:12:00,22.0,15.0,30.18,North,360,5.0,-999.0,75,-99.99,,,-99.99,,2013-04-09 13:12:00,
2013-04-09 08:23:00,22.0,15.0,30.19,NNW,346,6.0,-999.0,74,-99.99,,,-99.99,,2013-04-09 13:23:00,
2013-04-09 08:32:00,22.0,15.0,30.19,North,360,7.0,-999.0,74,-99.99,,,-99.99,,2013-04-09 13:32:00,
2013-04-09 08:42:00,22.0,15.0,30.19,North,360,7.0,-999.0,74,-99.99,,,-99.99,,2013-04-09 13:42:00,
2013-04-09 08:52:00,22.0,15.0,30.20,North,9,5.0,-999.0,73,-99.99,,,-99.99,,2013-04-09 13:52:00,
2013-04-09 09:03:00,22.0,15.0,30.20,North,11,5.0,-999.0,74,-99.99,,,-99.99,,2013-04-09 14:03:00,
2013-04-09 09:12:00,22.0,15.0,30.20,North,11,5.0,-999.0,74,-99.99,,,-99.99,,2013-04-09 14:12:00,
2013-04-09 09:22:00,22.0,15.0,30.21,North,350,6.0,-999.0,73,-99.99,,,-99.99,,2013-04-09 14:22:00,
2013-04-09 09:32:00,22.0,15.0,30.21,North,360,5.0,-999.0,73,-99.99,,,-99.99,,2013-04-09 14:32:00,
2013-04-09 09:42:00,22.0,15.0,30.21,North,360,5.0,-999.0,73,-99.99,,,-99.99,,2013-04-09 14:42:00,
2013-04-09 09:52:00,22.0,15.0,30.20,North,360,6.0,-999.0,73,-99.99,,,-99.99,,2013-04-09 14:52:00,
2013-04-09 10:02:00,21.0,14.0,30.20,NNW,330,6.0,-999.0,73,-99.99,,,-99.99,,2013-04-09 15:02:00,
2013-04-09 10:12:00,21.0,14.0,30.20,NNW,330,6.0,-999.0,73,-99.99,,,-99.99,,2013-04-09 15:12:00,
2013-04-09 10:22:00,22.0,15.0,30.21,NNW,342,6.0,-999.0,73,-99.99,,,-99.99,,2013-04-09 15:22:00,
2013-04-09 10:33:00,22.0,15.0,30.22,NNE,12,5.0,-999.0,73,-99.99,,,-99.99,,2013-04-09 15:33:00,
2013-04-09 10:43:00,22.0,15.0,30.22,NNE,12,5.0,-999.0,73,-99.99,,,-99.99,,2013-04-09 15:43:00,
2013-04-09 10:53:00,22.0,15.0,30.22,North,360,4.0,-999.0,73,-99.99,,,-99.99,,2013-04-09 15:53:00,
2013-04-09 11:03:00,22.0,15.0,30.24,North,360,4.0,-999.0,73,-99.99,,,-99.99,,2013-04-09 16:03:00,
2013-04-09 11:13:00,22.0,15.0,30.24,North,360,4.0,-999.0,73,-99.99,,,-99.99,,2013-04-09 16:13:00,
2013-04-09 11:23:00,22.0,15.0,30.24,North,350,6.0,-999.0,73,-99.99,,,-99.99,,2013-04-09 16:23:00,
2013-04-09 11:33:00,22.0,15.0,30.24,NNW,338,5.0,-999.0,74,-99.99,,,-99.99,,2013-04-09 16:33:00,
2013-04-09 11:42:00,22.0,15.0,30.24,NNW,338,5.0,-999.0,74,-99.99,,,-99.99,,2013-04-09 16:42:00,
2013-04-09 11:53:00,22.0,15.0,30.23,NNW,329,7.0,-999.0,74,-99.99,,,-99.99,,2013-04-09 16:53:00,
2013-04-09 12:02:00,22.0,15.0,30.22,NNW,331,6.0,-999.0,75,-99.99,,,-99.99,,2013-04-09 17:02:00,
2013-04-09 12:12:00,22.0,15.0,30.22,NNW,331,6.0,-999.0,75,-99.99,,,-99.99,,2013-04-09 17:12:00,
2013-04-09 12:23:00,22.0,16.0,30.22,NNW,348,6.0,-999.0,76,-99.99,,,-99.99,,2013-04-09 17:23:00,
2013-04-09 12:32:00,23.0,17.0,30.22,North,360,7.0,-999.0,76,-99.99,,,-99.99,,2013-04-09 17:32:00,
2013-04-09 12:42:00,23.0,17.0,30.22,North,360,7.0,-999.0,76,-99.99,,,-99.99,,2013-04-09 17:42:00,
2013-04-09 12:54:00,23.0,17.0,30.24,North,360,5.0,-999.0,76,-99.99,,,-99.99,,2013-04-09 17:54:00,
2013-04-09 13:02:00,24.0,18.0,30.24,NNW,338,5.0,-999.0,76,-99.99,,,-99.99,,2013-04-09 18:02:00,
2013-04-09 13:12:00,24.0,18.0,30.24,NNW,338,5.0,-999.0,76,-99.99,,,-99.99,,2013-04-09 18:12:00,
2013-04-09 13:22:00,25.0,18.0,30.22,North,355,5.0,-999.0,75,-99.99,,,-99.99,,2013-04-09 18:22:00,
2013-04-09 13:32:00,26.0,19.0,30.22,North,351,6.0,-999.0,75,-99.99,,,-99.99,,2013-04-09 18:32:00,
2013-04-09 13:43:00,26.0,19.0,30.22,North,351,6.0,-999.0,75,-99.99,,,-99.99,,2013-04-09 18:43:00,
2013-04-09 13:53:00,27.0,19.0,30.22,North,360,8.0,-999.0,72,-99.99,,,-99.99,,2013-04-09 18:53:00,
2013-04-09 14:02:00,27.0,19.0,30.22,North,360,8.0,-999.0,72,-99.99,,,-99.99,,2013-04-09 19:02:00,
2013-04-09 14:12:00,27.0,19.0,30.22,North,360,8.0,-999.0,72,-99.99,,,-99.99,,2013-04-09 19:12:00,
2013-04-09 14:22:00,27.0,19.0,30.22,North,360,8.0,-999.0,72,-99.99,,,-99.99,,2013-04-09 19:22:00,
2013-04-09 14:32:00,28.0,20.0,30.20,North,360,7.0,-999.0,71,-99.99,,,-99.99,,2013-04-09 19:32:00,
2013-04-09 14:42:00,28.0,20.0,30.20,North,360,7.0,-999.0,71,-99.99,,,-99.99,,2013-04-09 19:42:00,
2013-04-09 14:53:00,29.0,20.0,30.18,North,360,7.0,-999.0,70,-99.99,,,-99.99,,2013-04-09 19:53:00,
2013-04-09 15:02:00,30.0,21.0,30.18,NNE,17,7.0,-999.0,69,-99.99,,,-99.99,,2013-04-09 20:02:00,
2013-04-09 15:12:00,30.0,21.0,30.18,NNE,17,7.0,-999.0,69,-99.99,,,-99.99,,2013-04-09 20:12:00,
2013-04-09 15:22:00,30.0,21.0,30.17,North,11,7.0,-999.0,68,-99.99,,,-99.99,,2013-04-09 20:22:00,
2013-04-09 15:33:00,31.0,20.0,30.18,NNW,334,6.0,-999.0,64,-99.99,,,-99.99,,2013-04-09 20:33:00,
2013-04-09 15:42:00,31.0,20.0,30.18,NNW,334,6.0,-999.0,64,-99.99,,,-99.99,,2013-04-09 20:42:00,
2013-04-09 15:52:00,31.0,20.0,30.18,NNW,331,7.0,-999.0,63,-99.99,,,-99.99,,2013-04-09 20:52:00,
2013-04-09 16:02:00,31.0,20.0,30.19,North,360,7.0,-999.0,63,-99.99,,,-99.99,,2013-04-09 21:02:00,
2013-04-09 16:13:00,31.0,20.0,30.19,North,360,7.0,-999.0,63,-99.99,,,-99.99,,2013-04-09 21:13:00,
2013-04-09 16:22:00,31.0,20.0,30.19,North,360,7.0,-999.0,63,-99.99,,,-99.99,,2013-04-09 21:22:00,
2013-04-09 16:33:00,32.0,19.0,30.20,North,360,6.0,-999.0,59,-99.99,,,-99.99,,2013-04-09 21:33:00,
2013-04-09 16:42:00,32.0,19.0,30.20,North,360,6.0,-999.0,59,-99.99,,,-99.99,,2013-04-09 21:42:00,
2013-04-09 16:53:00,32.0,19.0,30.21,North,360,4.0,-999.0,59,-99.99,,,-99.99,,2013-04-09 21:53:00,
2013-04-09 17:03:00,31.0,23.0,30.22,NNW,336,2.0,-999.0,71,-99.99,,,-99.99,,2013-04-09 22:03:00,
2013-04-09 17:13:00,30.0,22.0,30.23,NNW,338,4.0,-999.0,73,-99.99,,,-99.99,,2013-04-09 22:13:00,
2013-04-09 17:23:00,30.0,22.0,30.23,NNW,338,4.0,-999.0,73,-99.99,,,-99.99,,2013-04-09 22:23:00,
2013-04-09 17:33:00,29.0,21.0,30.23,NNW,339,5.0,-999.0,73,-99.99,,,-99.99,,2013-04-09 22:33:00,
2013-04-09 17:42:00,29.0,21.0,30.23,NNW,339,5.0,-999.0,73,-99.99,,,-99.99,,2013-04-09 22:42:00,
2013-04-09 17:53:00,29.0,21.0,30.23,NNW,341,6.0,-999.0,72,-99.99,,,-99.99,,2013-04-09 22:53:00,
2013-04-09 18:03:00,29.0,21.0,30.22,NNW,348,6.0,-999.0,72,-99.99,,,-99.99,,2013-04-09 23:03:00,
2013-04-09 18:12:00,29.0,21.0,30.20,NNW,340,5.0,-999.0,72,-99.99,,,-99.99,,2013-04-09 23:12:00,
2013-04-09 18:22:00,29.0,21.0,30.20,NNW,340,5.0,-999.0,72,-99.99,,,-99.99,,2013-04-09 23:22:00,
2013-04-09 18:32:00,29.0,21.0,30.19,North,350,5.0,-999.0,73,-99.99,,,-99.99,,2013-04-09 23:32:00,
2013-04-09 18:42:00,29.0,21.0,30.19,North,350,5.0,-999.0,73,-99.99,,,-99.99,,2013-04-09 23:42:00,
2013-04-09 18:52:00,29.0,22.0,30.19,North,360,5.0,-999.0,74,-99.99,,,-99.99,,2013-04-09 23:52:00,
2013-04-09 19:03:00,29.0,22.0,30.19,North,360,5.0,-999.0,74,-99.99,,,-99.99,,2013-04-10 00:03:00,
2013-04-09 19:12:00,29.0,22.0,30.19,North,360,5.0,-999.0,74,-99.99,,,-99.99,,2013-04-10 00:12:00,
2013-04-09 19:23:00,30.0,23.0,30.19,North,349,5.0,-999.0,75,-99.99,,,-99.99,,2013-04-10 00:23:00,
2013-04-09 19:32:00,30.0,23.0,30.19,North,11,5.0,-999.0,75,-99.99,,,-99.99,,2013-04-10 00:32:00,
2013-04-09 19:42:00,30.0,23.0,30.19,North,11,5.0,-999.0,75,-99.99,,,-99.99,,2013-04-10 00:42:00,
2013-04-09 19:52:00,30.0,22.0,30.19,North,350,5.0,-999.0,72,-99.99,,,-99.99,,2013-04-10 00:52:00,
2013-04-09 20:02:00,30.0,22.0,30.19,NNW,339,3.0,-999.0,72,-99.99,,,-99.99,,2013-04-10 01:02:00,
2013-04-09 20:12:00,30.0,22.0,30.18,North,11,4.0,-999.0,72,-99.99,,,-99.99,,2013-04-10 01:12:00,
2013-04-09 20:23:00,30.0,22.0,30.18,North,11,4.0,-999.0,72,-99.99,,,-99.99,,2013-04-10 01:23:00,
2013-04-09 20:32:00,30.0,22.0,30.17,North,360,3.0,-999.0,72,-99.99,,,-99.99,,2013-04-10 01:32:00,
2013-04-09 20:42:00,30.0,22.0,30.17,North,360,3.0,-999.0,72,-99.99,,,-99.99,,2013-04-10 01:42:00,
2013-04-09 20:52:00,30.0,22.0,30.19,North,355,4.0,-999.0,73,-99.99,,,-99.99,,2013-04-10 01:52:00,
2013-04-09 21:02:00,30.0,22.0,30.19,North,355,4.0,-999.0,73,-99.99,,,-99.99,,2013-04-10 02:02:00,
2013-04-09 21:12:00,30.0,22.0,30.19,North,355,4.0,-999.0,73,-99.99,,,-99.99,,2013-04-10 02:12:00,
2013-04-09 21:22:00,30.0,23.0,30.20,North,5,0.0,-999.0,74,-99.99,,,-99.99,,2013-04-10 02:22:00,
2013-04-09 21:32:00,30.0,23.0,30.20,NNW,344,2.0,-999.0,75,-99.99,,,-99.99,,2013-04-10 02:32:00,
2013-04-09 21:43:00,30.0,23.0,30.20,NNW,344,2.0,-999.0,75,-99.99,,,-99.99,,2013-04-10 02:43:00,
2013-04-09 21:52:00,30.0,23.0,30.21,NW,326,3.0,-999.0,76,-99.99,,,-99.99,,2013-04-10 02:52:00,
2013-04-09 22:02:00,29.0,23.0,30.22,NW,324,4.0,-999.0,78,-99.99,,,-99.99,,2013-04-10 03:02:00,
2013-04-09 22:12:00,29.0,23.0,30.22,NW,324,4.0,-999.0,78,-99.99,,,-99.99,,2013-04-10 03:12:00,
2013-04-09 22:22:00,29.0,23.0,30.23,NNW,345,4.0,-999.0,78,-99.99,,,-99.99,,2013-04-10 03:22:00,
2013-04-09 22:33:00,29.0,23.0,30.23,North,360,4.0,-999.0,78,-99.99,,,-99.99,,2013-04-10 03:33:00,
2013-04-09 22:43:00,29.0,23.0,30.23,North,360,4.0,-999.0,78,-99.99,,,-99.99,,2013-04-10 03:43:00,
2013-04-09 22:52:00,29.0,23.0,30.24,North,360,3.0,-999.0,78,-99.99,,,-99.99,,2013-04-10 03:52:00,
2013-04-09 23:03:00,29.0,23.0,30.23,NNW,340,3.0,-999.0,78,-99.99,,,-99.99,,2013-04-10 04:03:00,
2013-04-09 23:13:00,29.0,23.0,30.23,NNW,340,3.0,-999.0,78,-99.99,,,-99.99,,2013-04-10 04:13:00,
2013-04-09 23:23:00,29.0,23.0,30.24,North,355,2.0,-999.0,78,-99.99,,,-99.99,,2013-04-10 04:23:00,
2013-04-09 23:33:00,29.0,23.0,30.25,North,350,3.0,-999.0,78,-99.99,,,-99.99,,2013-04-10 04:33:00,
2013-04-09 23:42:00,29.0,23.0,30.25,North,350,3.0,-999.0,78,-99.99,,,-99.99,,2013-04-10 04:42:00,
2013-04-09 23:52:00,29.0,23.0,30.24,North,9,3.0,-999.0,79,-99.99,,,-99.99,,2013-04-10 04:52:00,